Location: Newark
(55.4390°N, 25.0170°E)
Time: 08:30:35
(UTC+00:00)

Envisat - Pass Details

Date: 25 September 2022
Orbit: 763 x 765 km, 98.2° (Epoch: 02 December)

Event Time Altitude Azimuth Distance (km) Brightness Sun altitude
Rises 02:13:53 0° 19° (NNE) 3,249 6.9 -16.9°
Reaches altitude 10° 02:16:21 10° 27° (NNE) 2,318 6.2 -16.6°
Maximum altitude 02:21:08 40° 96° (E) 1,126 4.4 -16.0°
Drops below altitude 10° 02:25:54 10° 166° (SSE) 2,301 5.4 -15.3°
Sets 02:28:20 0° 174° (S) 3,223 6.1 -15.0°
